Regional Weather Roundup
Issued by NWS

Home | Current Version | Previous Version | Graphics & Text | Print | Product List | Glossary On
Versions: 1 2 3 4 5 6 7 8 9 10 11 12 13 14 15 16 17 18 19 20 21 22 23 24 25 26 27 28 29 30 31 32 33 34 35 36 37 38 39 40 41 42 43 44 45 46 47 48 49 50
000
ASUS43 KDMX 211307
RWRIA

WEATHER ROUNDUP FOR IOWA
NATIONAL WEATHER SERVICE DES MOINES IA
700 AM CST SUN DEC 21 2014

NOTE: "FAIR" INDICATES FEW OR NO CLOUDS BELOW 12,000 FEET WITH NO
SIGNIFICANT WEATHER AND/OR OBSTRUCTIONS TO VISIBILITY.

* - THESE STATIONS ARE NOT NWS STATIONS...THUS NOT UNDER NWS
QUALITY CONTROL.  THEY ALSO DO NOT REPORT WEATHER SUCH
AS PRECIPITATION OR FOG.

IAZ001>003-012>014-020>022-031>034-043>046-211400-
   NORTHWEST IOWA

CITY           SKY/WX    TMP DP  RH WIND       PRES   REMARKS
CARROLL *      CLOUDY    36  36 100 S18G26    29.90F FOG     WCI  25
CHEROKEE *     CLOUDY    36  36 100 S13       29.85F FOG     WCI  27
DENISON *      FOG       36  36 100 S16G23    29.86F VSB 3/4 WCI  26
LE MARS *      CLOUDY    36  36 100 S14       29.82F FOG     WCI  27
ORANGE CITY *  FOG       36  34  93 S9        29.81F VSB 1/4 WCI  29
SHELDON *      FOG       34  34 100 S16       29.81F VSB 3/4 WCI  23
SIOUX CITY     CLOUDY    37  36  96 S10       29.84F FOG     WCI  30
SPENCER        CLOUDY    35  33  92 S13       29.84F FOG     WCI  26
STORM LAKE *   FOG       36  36 100 S20       29.85F VSB 1/2 WCI  25
$$

IAZ055>058-069>071-079>083-090>094-211400-
   SOUTHWEST IOWA

CITY           SKY/WX    TMP DP  RH WIND       PRES   REMARKS
ATLANTIC *     CLOUDY    37  37 100 S16       29.93F FOG     WCI  28
AUDUBON *      CLOUDY    36  32  87 S15       29.92F FOG     WCI  26
CLARINDA *     CLOUDY    37  36  93 S12G17    29.99F WCI  30
COUNCIL BLFS * CLOUDY    37  37 100 S12       29.89F FOG     WCI  30
CRESTON *      CLOUDY    36  36 100 S16       29.98S FOG     WCI  26
HARLAN  *      CLOUDY    36  36 100 S13G20    29.94F FOG     WCI  27
LAMONI         CLOUDY    36  33  89 S12       30.03S WCI  28
RED OAK *      CLOUDY    37  37 100 S10       29.95F FOG     WCI  30
SHENANDOAH *   CLOUDY    37  36  93 S14       29.96F FOG     WCI  29
$$

IAZ047>049-059>061-072>074-084-211400-
   CENTRAL IOWA

CITY           SKY/WX    TMP DP  RH WIND       PRES   REMARKS
AMES           CLOUDY    37  34  89 S12       29.97F FOG     WCI  29
ANKENY *       CLOUDY    37  36  93 S14G21    29.99F WCI  29
CHARITON *     CLOUDY    37  36  93 S13       30.03S WCI  29
DES MOINES     CLOUDY    38  34  85 S17G23    29.99F WCI  28
GRINNELL*      CLOUDY    36  36 100 S15       30.03S FOG     WCI  26
KNOXVILLE *    CLOUDY    37  36  93 S12       30.01F WCI  30
MARSHALLTOWN   CLOUDY    36  35  96 S13       29.99F FOG     WCI  27
PELLA *        CLOUDY    37  36  93 S9        30.05S WCI  31
PERRY *        CLOUDY    37  36  93 S14       29.95F FOG     WCI  29
$$

IAZ004>006-015-016-023>025-035-036-211400-
   NORTH CENTRAL IOWA

CITY           SKY/WX    TMP DP  RH WIND       PRES   REMARKS
ALGONA *       FOG       36  36 100 S18       29.89S VSB 3/4 WCI  25
CLARION *      CLOUDY    36  36 100 S20       29.92F FOG     WCI  25
ESTHERVILLE    FOG       33  33 100 S14       29.85S VSB 1/4 WCI  23
FORT DODGE *   CLOUDY    36  32  87 S14G20    29.92S WCI  27
MASON CITY     FOG       34  34 100 S13       29.94F VSB 1/2 WCI  25
FOREST CITY *  FOG       34  34 100 S16       29.91F VSB 1   WCI  23
IOWA FALLS *   CLOUDY    36  36 100 S15       29.96F FOG     WCI  26
$$

IAZ007>011-017>019-026>030-037>042-050>054-066-211400-
   NORTHEAST IOWA

CITY           SKY/WX    TMP DP  RH WIND       PRES   REMARKS
CEDAR RAPIDS   CLOUDY    35  35 100 S9        30.06S FOG     WCI  28
CHARLES CITY * FOG       34  34 100 S16       29.97F VSB 1/2 WCI  23
CLINTON *      MOCLDY    34  30  86 S7        30.15S WCI  28
DECORAH *      FOG       32  32 100 S12       29.99F VSB 1/4 WCI  23
DUBUQUE        CLOUDY    33  32  96 S15       30.08S FOG     WCI  23
MONTICELLO *   CLOUDY    36  36 100 S13       30.08S FOG     WCI  27
OELWEIN *      CLOUDY    36  36 100 S15       30.02F FOG     WCI  26
WATERLOO       CLOUDY    35  35 100 S13       30.00F FOG     WCI  26
$$

IAZ064-065-067-068-078-211400-
   EAST CENTRAL IOWA

CITY           SKY/WX    TMP DP  RH WIND       PRES   REMARKS
DAVENPORT      CLOUDY    35  32  88 S10       30.12S WCI  27
IOWA CITY      CLOUDY    37  35  92 S9        30.10S WCI  30
MT. PLEASANT * CLOUDY    36  36 100 S10       30.12S WCI  28
MUSCATINE *    CLOUDY    37  34  87 S8        30.12F WCI  31
QUAD CITIES    CLOUDY    36  33  89 S5        30.12F WCI  32
$$

IAZ062-063-075>077-085>089-095>099-211400-
   SOUTHEAST IOWA

CITY           SKY/WX    TMP DP  RH WIND       PRES   REMARKS
BURLINGTON     LGT RAIN  38  34  85 S10       30.13S WCI  31
FAIRFIELD *    CLOUDY    37  34  87 S12       30.09S WCI  30
FORT MADISON * CLOUDY    39  37  93 S9        30.14S WCI  33
KEOKUK *       CLOUDY    39  36  87 SE7       30.13S WCI  34
OSKALOOSA *    CLOUDY    36  34  93 S10       30.06F WCI  28
CENTERVILLE *  CLOUDY    37  37 100 S13       30.06F WCI  29
OTTUMWA        CLOUDY    38  34  85 S13       30.06S WCI  30
WASHINGTON *   CLOUDY    37  37 100 S13       30.09S WCI  29
$$

ABBREVIATIONS USED IN REMARKS
   TC - TEMPERATURES IN CELSIUS
  WCI - WIND CHILL INDEX
   HX - HEAT INDEX
  VSB - VISIBILITY
$$



USA.gov is the U.S. government's official web portal to all federal, state and local government web resources and services.